NM5I Weather Reports


time (UTC)temp
C
wind
direction
speed
KPH
gust
KPH
rain 1hr
cm
rain 24hr
cm
rain mn
cm
humidity
%
barometer
mb
20260506222204 17 5 3.2 8.0 0.00 0.00 0.00 89 1011.7
20260506221123 17 320 3.2 9.7 0.00 0.00 0.00 89 1011.6
20260506220146 16 38 3.2 12.9 0.00 0.00 0.00 89 1011.5
20260506215158 16 346 4.8 19.3 0.00 0.00 0.00 88 1011.4
20260506214222 17 5 4.8 12.9 0.00 0.00 0.00 87 1011.6
20260506213145 17 13 1.6 8.0 0.00 0.00 0.00 87 1011.8
20260506212216 17 355 3.2 14.5 0.00 0.00 0.00 87 1011.7
20260506211134 17 67 4.8 9.7 0.00 0.00 0.00 86 1011.6
20260506210139 17 71 3.2 12.9 0.00 0.00 0.00 85 1011.4
20260506205223 17 333 3.2 14.5 0.00 0.00 0.00 85 1011.3
20260506204142 17 275 1.6 8.0 0.00 0.00 0.00 86 1011.1
20260506203222 17 29 1.6 14.5 0.00 0.00 0.00 86 1011.0
20260506201138 17 20 4.8 9.7 0.00 0.00 0.00 86 1011.4
20260506200830 17 13 3.2 9.7 0.00 0.00 0.00 86 1011.5
20260506200142 17 325 0.0 6.4 0.00 0.00 0.00 86 1011.7
20260506195141 17 33 3.2 6.4 0.00 0.00 0.00 86 1011.6
20260506194148 17 327 1.6 6.4 0.00 0.00 0.00 87 1012.0
20260506193230 16 59 1.6 8.0 0.00 0.00 0.00 87 1012.0
20260506192136 16 71 1.6 8.0 0.00 0.00 0.00 87 1011.7
20260506191201 16 98 3.2 12.9 0.00 0.00 0.00 87 1011.8
20260506185146 16 63 3.2 12.9 0.00 0.00 0.00 85 1011.3
20260506184221 16 28 4.8 12.9 0.00 0.00 0.00 85 1010.9
20260506183144 17 5 3.2 14.5 0.00 0.00 0.00 85 1010.6
20260506182222 16 84 4.8 16.1 0.00 0.00 0.00 85 1010.8
20260506181145 17 50 3.2 9.7 0.00 0.00 0.00 85 1010.9
20260506180219 17 5 1.6 12.9 0.00 0.00 0.00 84 1012.2
20260506175242 16 15 3.2 6.4 0.00 0.00 0.00 85 1012.3
20260506173147 16 107 3.2 8.0 0.00 0.00 0.00 86 1011.7
20260506172133 15 145 3.2 6.4 0.00 0.00 0.00 88 1012.2
20260506171207 15 13 3.2 8.0 0.00 0.00 0.00 89 1012.8
20260506170905 15 167 3.2 8.0 0.00 0.00 0.00 88 1012.8
20260506170154 15 287 4.8 8.0 0.00 0.00 0.00 88 1013.4
20260506165221 15 58 3.2 8.0 0.00 0.00 0.00 89 1013.4
20260506164147 15 35 3.2 17.7 0.00 0.00 0.00 89 1014.3
20260506163216 15 50 3.2 14.5 0.00 0.00 0.00 88 1014.2
20260506162149 15 275 4.8 12.9 0.00 0.00 0.00 88 1014.1
20260506161213 15 17 3.2 9.7 0.00 0.00 0.00 88 1013.9
20260506160124 15 345 4.8 9.7 0.00 0.00 0.00 87 1013.3
20260506155153 15 24 4.8 12.9 0.00 0.00 0.00 87 1012.9
20260506154130 15 298 1.6 9.7 0.00 0.00 0.00 88 1012.7
20260506153152 15 57 3.2 8.0 0.00 0.00 0.00 88 1012.2
20260506152206 15 60 4.8 9.7 0.00 0.00 0.00 87 1012.2
20260506151238 16 325 3.2 8.0 0.00 0.00 0.00 88 1012.1
20260506150152 16 29 3.2 9.7 0.00 0.00 0.00 88 1012.1
20260506145222 15 43 1.6 8.0 0.00 0.00 0.00 88 1012.1
20260506144151 15 355 3.2 16.1 0.00 0.00 0.00 88 1011.8
20260506143159 15 309 1.6 8.0 0.00 0.00 0.00 89 1011.6
20260506142234 15 331 3.2 14.5 0.00 0.00 0.00 90 1011.4
20260506141135 15 52 1.6 9.7 0.00 0.00 0.00 89 1011.4
20260506140850 15 340 3.2 9.7 0.00 0.00 0.00 89 1011.6
20260506140216 15 65 4.8 14.5 0.00 0.00 0.00 89 1011.4
20260506135144 16 75 1.6 8.0 0.00 0.00 0.00 90 1011.0
20260506134220 16 273 1.6 8.0 0.00 0.00 0.00 91 1011.1
20260506133221 16 270 1.6 6.4 0.00 0.00 0.00 91 1011.0
20260506132200 16 12 3.2 14.5 0.00 0.00 0.00 90 1010.9
20260506131212 17 5 3.2 9.7 0.00 0.00 0.00 89 1010.9
20260506130149 17 24 3.2 8.0 0.00 0.00 0.00 89 1010.7
20260506125218 17 344 3.2 8.0 0.00 0.00 0.00 89 1010.5
20260506124125 18 5 3.2 9.7 0.00 0.00 0.00 89 1010.2
20260506123156 18 274 1.6 3.2 0.00 0.00 0.00 90 1010.0
20260506122125 18 355 1.6 4.8 0.00 0.00 0.00 88 1010.0
20260506121155 18 9 1.6 6.4 0.00 0.00 0.00 88 1009.9
20260506120203 19 355 1.6 4.8 0.00 0.00 0.00 86 1009.7
20260506115133 20 329 1.6 6.4 0.00 0.00 0.00 85 1009.5
20260506114207 20 82 1.6 6.4 0.00 0.00 0.00 82 1009.2
20260506113135 21 46 3.2 6.4 0.00 0.00 0.00 81 1009.1
20260506112214 21 26 1.6 8.0 0.00 0.00 0.00 82 1008.9
20260506111144 22 44 3.2 6.4 0.00 0.00 0.00 83 1008.7
20260506110855 22 285 1.6 6.4 0.00 0.00 0.00 84 1008.6
20260506110159 22 312 1.6 4.8 0.00 0.00 0.00 83 1008.5
20260506105218 22 313 0.0 4.8 0.00 0.00 0.00 82 1008.4
20260506104129 23 294 4.8 11.3 0.00 0.00 0.00 89 1008.3
20260506103213 24 233 3.2 11.3 0.00 0.00 0.00 91 1008.0
20260506102135 24 209 1.6 8.0 0.00 0.00 0.00 90 1007.9
20260506101205 24 190 1.6 9.7 0.00 0.00 0.00 90 1007.9
20260506100203 24 148 6.4 16.1 0.00 0.00 0.00 90 1007.9
20260506095130 24 225 6.4 16.1 0.00 0.00 0.00 90 1007.8
20260506094155 24 138 3.2 16.1 0.00 0.00 0.00 90 1007.7
20260506093233 24 201 9.7 16.1 0.00 0.00 0.00 90 1007.7
20260506092145 24 236 4.8 16.1 0.00 0.00 0.00 90 1007.7
20260506091125 24 154 6.4 16.1 0.00 0.00 0.00 90 1007.6
20260506090209 24 189 8.0 12.9 0.00 0.00 0.00 90 1007.7
20260506085137 24 194 4.8 14.5 0.00 0.00 0.00 90 1007.6
20260506084211 24 242 6.4 12.9 0.00 0.00 0.00 90 1007.5
20260506083144 24 186 8.0 14.5 0.00 0.00 0.00 90 1007.5
20260506082214 24 194 6.4 16.1 0.00 0.00 0.00 90 1007.5
20260506081150 24 147 8.0 16.1 0.00 0.00 0.00 90 1007.6
20260506080925 24 186 4.8 12.9 0.00 0.00 0.00 90 1007.6
20260506073223 24 190 4.8 9.7 0.00 0.00 0.00 89 1007.6
20260506072156 24 207 3.2 8.0 0.00 0.00 0.00 89 1007.8
20260506071221 24 161 3.2 9.7 0.00 0.00 0.00 88 1007.5
20260506070208 24 189 1.6 8.0 0.00 0.00 0.00 88 1007.7
20260506062149 25 210 3.2 14.5 0.00 0.00 0.00 87 1007.6
20260506061138 25 232 3.2 9.7 0.00 0.00 0.00 87 1007.6
20260506060127 25 203 4.8 16.1 0.00 0.00 0.00 87 1007.7
20260506051134 25 229 4.8 16.1 0.00 0.00 0.00 85 1007.6
20260506050900 25 234 4.8 16.1 0.00 0.00 0.00 85 1007.5
20260506050206 25 171 9.7 16.1 0.00 0.00 0.00 85 1007.3
20260506043149 25 187 4.8 12.9 0.00 0.00 0.00 84 1007.4
20260506042221 25 238 4.8 19.3 0.00 0.00 0.00 84 1007.3
20260506040128 25 161 6.4 11.3 0.00 0.00 0.00 84 1006.6
20260506035209 25 180 4.8 11.3 0.00 0.00 0.00 84 1006.6
20260506034214 25 186 6.4 12.9 0.00 0.00 0.00 84 1006.5
20260506033142 26 199 3.2 14.5 0.00 0.00 0.00 84 1006.3
20260506031148 26 155 3.2 12.9 0.00 0.00 0.00 83 1006.2
20260506030141 26 168 4.8 11.3 0.00 0.00 0.00 83 1006.1
20260506025213 26 204 4.8 9.7 0.00 0.00 0.00 83 1006.3
20260506024131 26 189 1.6 8.0 0.00 0.00 0.00 82 1005.9
20260506023210 26 144 3.2 8.0 0.00 0.00 0.00 82 1005.8
20260506022225 26 188 3.2 12.9 0.00 0.00 0.00 81 1005.9
20260506021146 26 167 1.6 9.7 0.00 0.00 0.00 81 1005.9
20260506020151 27 176 1.6 6.4 0.00 0.00 0.00 80 1005.9
20260506015230 27 176 1.6 6.4 0.00 0.00 0.00 80 1005.7
20260506014235 27 170 3.2 8.0 0.00 0.00 0.00 80 1005.6
20260506013147 27 180 1.6 6.4 0.00 0.00 0.00 79 1005.6
20260506012211 27 180 0.0 3.2 0.00 0.00 0.00 79 1005.4
20260506011155 27 180 3.2 6.4 0.00 0.00 0.00 78 1005.3
20260506010144 27 171 1.6 6.4 0.00 0.00 0.00 77 1005.2
20260506005217 27 152 1.6 11.3 0.00 0.00 0.00 77 1005.0
20260506004218 28 127 3.2 12.9 0.00 0.00 0.00 76 1004.7
20260506003153 28 241 4.8 12.9 0.00 0.00 0.00 76 1004.7
20260506002218 28 190 9.7 16.1 0.00 0.00 0.00 75 1004.7
20260506001152 28 210 4.8 12.9 0.00 0.00 0.00 74 1004.7
20260506000154 28 207 3.2 12.9 0.00 0.00 0.00 74 1004.7
20260505235128 28 84 6.4 19.3 0.00 0.00 0.00 73 1004.7
20260505234156 28 167 9.7 20.9 0.00 0.00 0.00 73 1004.6
20260505233216 28 155 11.3 19.3 0.00 0.00 0.00 73 1004.6
20260505231159 29 194 8.0 19.3 0.00 0.00 0.00 72 1004.6
20260505230906 29 137 8.0 30.6 0.00 0.00 0.00 71 1004.5
20260505230241 29 197 11.3 30.6 0.00 0.00 0.00 71 1004.3
20260505224159 29 207 6.4 16.1 0.00 0.00 0.00 71 1004.2
20260505223205 29 311 8.0 24.1 0.00 0.00 0.00 72 1004.2